GEFSCGP_850_meantemp_324.txt.gz
Temperature
23 20 20 21 21 22 23 23 23 24 25 24 23 23 23 24 24 23 23 22 22 22 22 22 22 22 21 20 20 20 19 19 19 18 18 18 18 17 17 17 17 17 17 17
21 20 21 22 23 23 23 23 23 23 24 24 23 23 23 23 23 23 23 22 22 22 22 21 21 21 21 20 20 20 19 19 18 18 18 18 17 17 17 17 17 17 17 16
20 21 23 24 23 24 23 23 23 23 24 24 23 22 22 23 23 23 23 22 22 21 21 21 21 21 20 20 20 19 19 19 18 18 18 17 17 17 17 17 17 16 16 16
21 22 24 24 23 24 23 24 24 24 23 21 22 20 21 21 21 21 21 21 21 21 21 20 20 20 20 19 19 19 19 18 18 18 18 17 17 17 17 17 16 16 16 16
21 23 23 23 24 25 23 25 24 24 22 21 21 20 20 20 20 20 20 21 20 20 20 20 20 20 19 19 19 19 18 18 18 18 17 17 17 17 17 16 16 16 16 16
22 23 24 24 25 25 25 24 23 20 19 20 20 20 20 19 20 20 20 21 20 20 20 20 20 20 19 19 19 18 18 18 18 17 17 17 17 17 17 16 16 16 16 16
22 23 24 25 24 24 23 21 19 20 18 19 20 20 19 20 21 21 20 20 20 20 20 20 19 19 19 19 19 18 18 18 17 17 17 17 17 17 17 17 16 16 16 16
20 21 23 24 23 22 22 20 19 19 19 19 20 20 20 21 21 21 21 21 20 20 20 20 19 19 19 19 19 18 18 18 17 17 17 17 16 16 16 16 16 16 16 16
20 20 23 24 25 23 22 20 20 19 19 19 19 20 20 20 20 20 20 20 19 19 19 19 19 19 19 18 18 18 18 17 17 17 17 16 16 16 16 16 16 16 16 16
20 20 22 24 24 23 22 21 18 18 19 19 19 20 19 20 19 19 18 19 19 19 19 19 19 19 18 18 18 18 17 17 17 17 17 16 16 16 16 16 16 16 16 16
20 20 21 22 22 22 22 21 19 17 17 18 19 19 20 19 19 18 18 19 19 19 19 19 19 19 18 18 18 18 17 17 17 16 16 16 16 16 16 16 16 16 15 15
19 18 18 20 22 22 22 20 18 18 18 17 18 18 20 19 18 18 18 18 18 19 19 19 19 18 18 18 17 17 17 17 17 16 16 16 16 16 16 15 15 15 15 15
19 17 18 19 19 20 21 20 19 18 17 17 17 19 19 18 18 18 18 18 18 18 18 18 18 18 18 17 17 17 17 17 16 16 16 16 16 16 15 15 15 15 15 15
19 16 17 18 18 19 20 20 20 18 17 17 18 19 18 18 17 17 18 18 18 18 18 18 18 17 17 17 17 17 16 16 16 16 16 16 15 15 15 15 15 15 15 15
17 17 18 18 20 20 20 20 20 19 18 18 18 18 18 18 17 17 17 17 17 17 17 17 17 17 17 17 17 16 16 16 16 16 15 15 15 15 15 15 15 15 15 14
16 16 18 18 20 20 20 20 20 20 19 19 19 18 18 17 17 17 17 17 16 16 17 17 17 17 17 17 17 16 16 16 15 15 15 15 15 15 15 15 15 14 14 14
15 15 16 17 18 19 18 19 19 19 19 19 18 18 17 16 16 16 16 16 16 16 17 16 16 17 17 16 16 16 16 15 15 15 15 15 15 14 14 14 14 14 14 14
15 15 14 15 17 17 17 18 19 19 18 18 18 17 17 17 17 17 17 17 16 17 16 16 16 16 16 16 16 16 16 15 15 15 15 14 14 14 14 14 14 14 14 14
15 14 14 14 16 16 18 18 18 18 17 17 17 16 17 17 16 16 17 17 17 17 17 16 16 16 16 16 15 15 15 15 15 15 14 14 14 14 14 14 14 14 14 13
14 14 14 14 16 16 16 18 18 18 16 17 16 16 16 16 14 15 16 17 17 17 16 16 16 16 16 15 15 15 15 15 15 14 14 14 14 14 14 14 14 14 13 13
14 14 14 14 15 15 16 17 18 17 16 16 16 16 15 15 16 16 16 16 16 16 16 16 16 15 15 15 15 15 15 15 15 14 14 14 14 14 14 14 13 13 13 13
14 14 14 14 14 15 15 16 15 14 15 16 16 16 16 16 16 16 16 16 16 16 15 15 15 15 15 15 15 15 15 15 14 14 14 14 14 14 14 13 13 13 13 13
13 13 12 13 13 13 14 14 15 15 15 15 15 15 16 16 16 15 15 15 15 15 15 15 15 15 14 14 14 14 14 14 14 14 14 14 13 13 13 13 13 13 13 13
13 12 12 12 13 13 14 14 15 15 15 15 15 15 15 15 15 15 15 15 15 15 15 14 14 14 14 14 14 14 14 14 14 13 14 13 13 13 13 13 13 13 13 13
12 12 12 12 12 13 13 14 14 15 15 15 15 15 15 15 15 15 15 14 14 14 14 14 14 14 14 13 13 13 13 13 13 13 13 13 13 13 13 13 13 13 13 13
11 11 11 11 12 12 12 14 14 14 14 14 14 14 14 14 14 14 14 14 14 14 13 13 13 13 13 13 13 13 13 13 13 13 13 13 13 13 12 12 12 12 13 12

GEFSCGP_850_meantemp_330.txt.gz
Temperature
19 17 17 18 18 20 20 20 20 21 22 21 21 20 20 20 20 20 20 20 20 21 21 21 21 20 20 20 20 19 19 19 18 18 18 17 17 17 17 17 17 16 16 16
17 18 18 19 19 20 20 20 20 20 21 22 21 20 20 19 19 20 20 20 20 20 20 20 20 20 20 20 20 19 18 18 18 18 18 17 17 17 17 17 16 16 16 16
18 19 19 20 20 20 20 20 20 20 21 21 21 20 20 20 20 20 20 20 20 20 20 20 20 20 20 20 19 19 18 18 18 18 17 17 16 16 16 16 16 16 16 16
18 19 20 20 20 20 19 20 20 21 20 19 20 19 19 19 19 19 19 19 19 20 20 20 20 20 20 20 19 19 18 18 18 17 17 17 16 16 16 16 16 16 16 16
19 19 20 20 20 20 20 20 20 20 19 18 19 19 18 18 19 18 18 19 20 20 20 20 20 20 20 19 19 19 18 18 18 17 17 17 16 16 16 16 16 16 16 16
19 20 20 20 21 21 20 19 18 16 16 18 18 18 18 17 18 18 18 19 19 19 19 20 20 19 19 19 19 18 18 18 18 17 17 16 16 16 16 16 16 16 16 16
19 20 20 21 21 21 19 18 17 18 16 17 18 18 18 18 18 18 18 19 19 19 19 19 19 19 19 19 19 18 18 18 17 17 17 16 16 16 16 16 16 16 16 16
18 18 20 20 20 19 18 18 17 18 17 17 17 18 18 18 19 19 19 19 19 19 19 19 19 19 19 18 18 18 18 17 17 17 17 16 16 16 16 16 16 16 16 16
17 18 20 20 20 19 18 17 17 16 17 17 17 17 18 18 18 17 17 17 18 18 18 19 19 19 18 18 18 18 18 17 17 17 16 16 16 16 16 15 16 16 15 15
17 18 19 20 20 19 18 16 15 16 16 17 18 18 18 18 18 17 16 17 17 18 18 18 19 19 18 18 18 17 17 17 17 16 16 16 16 15 15 15 15 15 15 15
17 17 18 19 19 19 18 17 15 14 15 16 17 17 18 17 17 16 16 17 17 17 18 18 18 18 18 17 17 17 17 17 16 16 16 16 16 15 15 15 15 15 15 15
16 15 16 17 18 19 18 17 15 16 16 15 16 17 18 16 16 16 16 16 17 17 18 18 18 18 17 17 17 17 17 17 16 16 16 16 16 15 15 15 15 15 15 15
16 15 16 17 17 18 18 17 16 15 14 14 16 17 17 16 16 16 16 16 17 17 17 17 18 17 17 17 16 16 16 16 16 16 16 15 15 15 15 15 15 15 15 15
16 14 15 16 16 17 17 17 16 15 15 15 16 17 17 16 15 15 16 16 16 17 17 17 17 17 17 17 16 16 16 16 16 16 15 15 15 15 15 15 15 14 14 14
15 15 15 16 17 17 17 18 17 16 16 16 16 16 17 16 15 15 15 15 16 16 16 16 17 17 17 17 16 16 16 16 16 15 15 15 15 15 15 14 14 14 14 14
13 14 15 16 17 17 17 17 17 17 17 17 17 16 15 15 15 15 15 15 15 15 16 16 16 16 17 16 16 16 16 16 15 15 15 15 15 14 14 14 14 14 14 14
12 13 14 15 16 17 16 17 17 17 16 16 16 16 15 14 14 14 15 15 15 15 16 16 16 16 16 16 16 16 16 15 15 15 15 15 14 14 14 14 14 14 14 14
12 12 12 13 15 16 16 16 17 16 15 15 15 15 14 14 15 15 15 15 15 15 16 16 16 16 16 16 16 16 15 15 15 15 15 14 14 14 14 14 14 14 14 13
11 11 11 12 14 15 16 16 15 15 15 14 14 14 14 14 14 14 15 16 16 16 16 16 16 16 16 16 15 15 15 15 15 15 14 14 14 14 14 14 14 14 13 13
11 11 11 12 14 14 15 16 16 16 15 14 14 13 13 14 14 14 16 16 16 16 16 16 16 15 15 15 15 15 15 15 15 14 14 14 14 14 14 13 13 13 13 13
11 11 12 12 13 14 14 15 15 15 15 14 14 13 13 13 14 15 16 15 16 15 15 15 15 15 15 15 14 14 14 14 14 14 14 14 14 14 13 13 13 13 13 13
11 11 11 11 13 14 14 14 14 13 14 14 14 14 14 14 14 15 15 15 15 15 15 15 15 15 14 14 14 14 14 14 14 14 14 14 13 13 13 13 13 13 13 13
10 11 10 11 12 12 12 13 14 14 13 13 14 14 14 14 14 14 14 14 14 14 14 14 14 14 14 14 14 14 14 14 14 13 13 13 13 13 13 13 13 13 12 12
11 10 10 11 11 12 12 13 14 14 14 14 14 14 14 14 14 14 14 14 14 14 14 14 14 14 14 14 14 14 14 14 13 13 13 13 13 13 13 13 13 13 12 12
10 10 10 10 11 12 12 13 13 14 14 14 14 14 14 14 14 14 13 13 13 14 14 14 14 14 14 13 13 13 13 13 13 13 13 13 13 13 13 13 12 12 12 12
9 9 10 10 11 11 12 13 13 13 13 13 13 13 13 14 13 13 13 13 13 13 14 14 13 13 13 13 13 13 13 13 13 13 13 13 12 12 12 12 12 12 12 12

GEFSCGP_850_meantemp_336.txt.gz
Temperature
25 26 26 27 27 28 28 28 28 28 29 28 28 29 29 28 27 27 27 26 25 24 23 22 21 20 20 20 20 19 19 19 19 18 18 17 17 17 17 17 17 17 17 16
25 26 27 27 27 27 27 27 28 28 28 28 28 28 29 28 28 27 26 26 25 24 23 21 20 20 20 20 20 19 19 19 18 18 18 18 17 17 16 16 16 16 16 16
26 27 27 26 26 26 27 27 28 27 28 28 27 28 29 28 27 26 25 25 24 24 23 21 20 20 20 19 20 19 19 18 18 18 18 17 17 16 16 16 16 16 16 16
26 27 26 26 26 26 26 28 27 27 27 28 28 27 28 28 28 27 26 25 24 24 23 22 21 20 19 19 19 19 19 19 18 18 17 17 17 16 16 16 16 16 16 16
26 26 26 26 26 26 27 28 27 27 27 27 27 27 28 28 28 28 27 25 24 24 23 22 21 20 19 19 18 18 18 18 18 18 17 17 16 16 16 16 16 16 16 16
26 26 26 26 27 27 27 27 27 27 27 26 27 27 27 29 28 28 27 25 24 23 22 21 21 20 19 19 18 18 18 18 18 17 17 17 16 16 16 16 16 16 16 16
25 25 26 26 26 26 26 26 25 25 25 26 27 26 27 28 28 27 26 25 23 22 22 21 20 20 19 19 18 18 18 18 17 17 17 17 16 16 16 16 16 16 16 16
24 25 25 26 26 26 26 26 25 25 26 27 26 26 27 27 26 25 25 24 23 22 21 21 20 19 19 19 18 18 17 17 17 17 17 17 16 16 16 16 15 15 15 15
25 25 26 26 26 26 26 26 27 27 26 26 27 27 27 26 26 25 24 23 22 22 21 20 20 19 19 18 18 17 17 17 17 17 17 17 16 16 15 15 15 15 15 15
25 24 25 26 26 26 27 27 26 26 24 25 26 26 27 26 26 25 24 23 22 21 20 20 19 19 18 18 17 17 17 17 17 16 16 16 16 16 15 15 15 15 15 15
24 23 24 25 24 25 25 25 25 26 26 25 25 26 27 26 26 25 24 23 22 21 20 19 19 18 18 17 17 17 16 16 16 16 16 16 16 16 15 15 15 15 15 15
23 23 23 24 25 26 25 25 25 24 24 25 25 26 26 26 25 24 24 22 21 20 19 19 18 18 17 17 17 17 16 16 16 16 16 16 15 15 15 15 15 15 15 15
22 22 22 23 24 24 24 25 26 25 25 25 25 25 25 25 24 23 22 21 20 19 19 18 18 17 17 17 17 16 16 16 16 15 15 15 15 15 15 15 15 15 15 14
22 22 22 23 23 24 24 24 25 25 25 25 25 26 25 24 24 22 21 20 20 19 18 18 17 17 17 16 16 16 16 16 16 15 15 15 15 15 15 15 15 14 14 14
21 21 22 23 23 24 24 24 24 24 25 25 25 25 25 24 24 22 21 20 19 18 17 17 17 16 16 16 16 16 16 15 15 15 15 15 15 15 15 14 14 14 14 14
20 21 21 22 23 23 23 24 24 24 24 25 25 24 24 23 22 21 20 19 19 18 17 17 16 16 16 16 15 15 15 15 15 15 15 14 14 14 14 14 14 14 14 14
20 20 20 21 22 22 22 23 24 24 24 24 24 24 23 23 22 21 20 19 19 18 17 17 16 16 16 15 15 15 15 15 15 15 14 14 14 14 14 14 14 14 14 14
19 19 20 21 21 20 22 24 24 24 23 24 23 23 23 22 20 19 19 18 18 18 17 16 16 16 15 15 15 15 15 15 15 14 14 14 14 14 14 14 14 14 14 14
19 18 19 20 20 21 22 22 23 22 22 23 22 22 21 20 20 19 18 17 17 17 16 16 16 16 15 15 15 14 14 14 14 14 14 14 14 14 14 14 14 14 14 13
18 18 19 19 19 20 21 22 21 22 21 21 21 21 20 20 21 20 17 17 17 16 16 16 15 15 15 14 14 14 14 14 14 14 14 14 14 14 14 14 14 14 14 13
18 18 18 19 19 21 21 20 20 20 20 20 19 19 19 20 19 18 17 16 16 15 15 15 15 15 14 14 14 14 14 14 14 14 14 13 13 13 13 13 13 14 13 13
18 18 18 19 19 19 19 20 20 19 18 18 18 18 17 17 16 16 16 16 15 15 15 15 14 14 14 14 13 13 13 13 13 13 13 13 13 13 13 13 13 13 13 13
18 18 18 18 18 17 17 17 16 16 17 17 17 16 16 16 16 16 15 15 15 15 14 14 14 14 14 13 13 13 13 13 13 13 13 13 13 13 13 13 13 13 13 13
17 16 17 17 17 16 16 16 15 15 16 16 16 15 15 15 15 15 15 14 14 14 14 14 14 14 13 13 13 13 13 13 13 13 13 13 13 13 13 13 13 13 13 13
15 16 16 16 16 16 15 15 15 15 15 15 15 15 15 15 15 14 14 14 14 13 13 13 13 13 13 13 13 13 13 13 13 12 12 13 13 13 13 13 13 13 13 13
15 15 15 16 15 15 15 15 14 14 14 14 14 14 14 14 14 14 14 13 13 13 13 13 13 13 13 13 12 12 12 13 12 12 12 13 13 13 13 13 12 12 12 12

GEFSCGP_850_meantemp_342.txt.gz
Temperature
28 28 28 29 30 30 31 30 30 31 33 31 31 31 31 31 31 31 30 29 28 27 26 25 24 23 22 21 21 20 20 20 19 19 19 18 18 18 17 17 17 17 17 17
28 28 29 30 31 30 30 30 30 31 32 31 30 30 31 31 31 31 30 29 28 27 26 24 23 23 22 21 21 20 20 20 19 19 19 18 18 18 17 17 17 17 17 17
28 29 30 30 30 30 30 30 30 30 31 31 30 29 30 31 31 31 30 30 29 28 26 24 23 23 22 21 20 20 20 19 19 19 19 18 18 17 17 17 17 17 17 17
29 30 30 30 29 30 29 30 30 30 30 29 30 28 30 30 30 30 30 29 29 28 26 25 23 23 22 21 20 20 20 19 19 19 18 18 18 17 17 17 17 17 17 17
28 29 29 29 30 30 30 31 30 30 29 29 29 29 30 30 30 30 30 29 29 28 26 25 24 23 22 21 20 19 19 19 19 19 18 18 18 17 17 17 17 17 16 16
29 30 30 30 30 30 30 30 30 29 29 27 28 29 28 30 30 30 30 29 28 27 26 25 24 23 22 21 20 19 19 19 19 18 18 18 18 17 17 17 17 17 16 16
28 29 30 30 29 30 29 28 27 27 27 27 29 28 28 30 30 30 29 28 27 27 26 25 24 23 22 21 20 19 19 18 18 18 18 18 18 17 17 17 17 16 16 16
26 27 28 29 29 28 29 28 26 26 26 28 29 28 28 30 30 29 29 28 27 26 26 25 24 23 22 21 20 19 19 18 18 18 18 17 17 17 17 17 17 16 16 16
26 27 29 29 30 29 28 28 29 27 27 27 27 28 28 29 29 28 28 28 27 26 25 24 23 22 21 21 20 19 19 18 18 18 17 17 17 17 17 17 16 16 16 16
27 26 28 29 29 29 29 29 28 27 25 26 27 27 27 27 28 28 28 27 26 26 25 23 22 22 21 20 20 19 19 18 18 18 17 17 17 17 17 16 16 16 16 16
27 26 27 28 27 27 28 28 27 27 26 26 25 26 28 27 27 27 27 27 26 25 24 23 22 21 20 19 19 19 18 18 18 17 17 17 17 17 17 16 16 16 16 16
26 26 25 26 28 29 28 28 27 25 25 26 25 26 27 27 27 27 27 26 25 24 23 22 21 20 20 19 19 18 18 18 18 17 17 17 16 16 16 16 16 16 16 16
25 24 23 24 26 27 27 27 27 27 26 25 25 25 27 27 27 26 26 25 23 23 22 21 21 20 19 19 18 18 18 18 18 17 17 17 16 16 16 16 16 16 16 15
24 23 23 23 25 26 26 26 27 26 25 25 25 25 25 26 25 25 25 24 23 22 21 21 20 19 19 18 18 18 18 17 17 17 17 16 16 16 16 16 16 15 15 15
24 23 23 24 25 26 26 26 26 26 26 25 25 25 25 25 25 25 24 23 22 22 21 21 20 19 18 18 18 17 17 17 17 17 16 16 16 16 15 15 15 15 15 15
23 22 23 23 24 25 25 26 26 26 26 26 26 25 25 25 25 24 23 23 22 21 20 20 19 18 18 17 17 17 17 17 17 16 16 16 16 15 15 15 15 15 15 15
22 21 21 22 24 24 24 25 25 25 26 25 25 25 25 25 24 23 23 22 22 21 20 19 18 18 17 17 17 16 16 16 16 16 16 16 15 15 15 15 15 15 15 15
21 20 21 21 22 21 24 26 26 26 25 25 25 25 25 24 23 23 22 22 21 20 19 19 18 17 17 17 16 16 16 16 16 16 16 15 15 15 15 15 15 15 15 15
22 20 20 21 21 21 23 24 24 24 24 25 24 24 24 23 23 22 22 21 20 20 19 18 17 17 17 16 16 16 16 16 16 16 16 15 15 15 15 15 15 14 14 14
22 21 20 20 20 20 21 23 24 24 23 24 24 24 24 23 22 22 21 20 20 19 18 17 17 17 16 16 16 16 15 15 15 15 15 15 15 15 15 15 14 15 14 14
20 20 19 20 20 21 21 22 23 22 21 22 22 22 22 22 21 20 19 19 19 18 17 17 17 16 16 16 15 15 15 15 15 15 15 15 15 15 15 15 14 14 14 14
20 20 19 20 19 19 20 21 20 20 20 20 20 19 19 19 19 19 18 18 18 17 17 16 16 16 15 15 15 15 15 15 15 15 15 15 15 14 14 14 14 14 14 14
19 19 19 19 19 19 19 19 19 19 19 19 19 18 18 18 18 18 18 17 17 17 16 16 16 15 15 15 15 15 14 14 14 14 14 14 14 14 14 14 14 14 14 14
18 19 19 18 19 19 19 19 18 18 18 18 18 17 17 18 18 17 17 16 16 16 16 16 15 15 15 14 14 14 14 14 14 14 14 14 14 14 14 14 14 14 14 14
16 17 17 17 17 18 18 17 17 17 17 17 17 17 17 17 17 17 16 16 16 15 15 15 15 15 14 14 14 14 14 14 14 14 14 14 14 14 14 14 14 14 14 14
16 16 16 16 16 17 17 17 17 17 17 16 16 16 16 16 16 16 16 15 15 15 15 15 14 14 14 14 14 13 13 13 13 13 13 14 14 14 14 14 14 14 14 14

GEFSCGP_850_meantemp_348.txt.gz
Temperature
23 20 20 20 21 22 23 23 23 24 25 25 24 24 24 25 25 25 24 24 23 23 24 24 23 23 22 22 22 21 21 20 20 19 19 19 19 18 18 18 18 17 17 17
21 20 21 22 23 23 23 23 23 24 25 26 24 24 24 24 25 25 24 24 23 23 23 23 23 22 22 22 21 21 21 20 20 19 19 19 19 18 18 18 17 17 17 17
20 21 23 24 23 24 23 23 23 24 25 25 25 23 24 24 25 25 25 24 23 23 23 23 22 22 22 22 21 21 20 20 20 19 19 18 18 18 18 17 17 17 17 17
21 22 24 23 23 24 22 24 25 25 23 21 23 21 22 22 23 23 23 23 23 23 23 23 22 22 22 22 22 21 20 20 19 19 19 19 18 18 18 17 17 17 17 17
21 23 23 23 24 24 23 24 24 24 23 21 22 21 21 21 22 22 22 23 23 23 23 23 22 22 22 22 21 21 20 20 19 19 19 18 18 18 18 17 17 17 17 17
21 23 23 24 25 25 24 24 22 20 19 20 21 21 20 20 22 22 22 22 22 22 22 22 22 22 22 21 21 20 20 20 19 19 18 18 18 18 17 17 17 17 17 16
21 22 23 24 24 24 23 20 19 20 18 19 20 21 20 21 22 22 22 22 22 22 21 22 22 22 22 21 20 20 20 19 19 19 18 18 18 18 17 17 17 17 17 17
20 20 22 24 23 22 22 20 19 19 19 19 21 20 21 22 22 22 22 22 21 21 21 21 21 21 21 21 20 20 19 19 18 18 18 18 18 18 17 17 17 17 17 17
19 20 23 24 24 23 22 20 19 18 19 19 19 21 21 22 21 21 21 21 20 21 21 21 21 21 21 20 20 20 19 19 18 18 18 17 17 17 17 17 17 17 17 16
20 20 22 23 24 23 22 21 18 18 18 19 20 21 20 21 20 20 20 20 20 20 20 20 20 20 20 20 20 19 19 18 18 18 18 17 17 17 17 17 17 17 16 16
20 19 20 21 22 22 22 21 19 16 17 18 18 19 21 20 19 19 19 20 20 20 20 20 20 20 20 20 19 19 18 18 18 18 17 17 17 17 16 16 16 16 16 16
19 17 18 19 21 22 21 20 18 18 17 17 17 18 20 19 19 19 20 20 20 19 20 20 19 19 19 19 19 19 18 18 18 17 17 17 17 16 16 16 16 16 16 16
19 17 17 18 19 20 21 20 19 17 16 16 17 18 20 19 19 20 20 19 19 19 19 19 19 19 19 18 18 18 18 17 17 17 17 17 16 16 16 16 16 16 16 16
19 16 17 17 18 19 20 20 20 17 16 17 18 19 19 18 18 18 19 19 19 19 19 19 18 18 18 18 18 17 17 17 17 17 16 16 16 16 16 16 16 16 16 15
17 17 18 18 19 20 20 20 20 19 18 18 18 19 19 18 18 18 19 18 18 18 18 18 18 18 18 17 17 17 17 17 17 16 16 16 16 16 16 16 15 15 15 15
15 16 17 18 20 20 20 20 20 20 19 19 19 18 18 18 19 18 18 18 18 18 18 17 17 17 17 17 17 17 17 17 16 16 16 16 16 16 16 15 15 15 15 15
14 15 15 16 18 19 18 19 19 19 19 18 18 18 17 17 17 18 18 18 18 18 17 17 17 17 17 17 17 17 17 16 16 16 16 16 15 15 15 15 15 15 15 15
14 14 13 15 17 17 17 18 19 18 18 17 17 17 17 17 17 18 18 18 18 18 17 17 17 17 17 17 17 17 16 16 16 16 15 15 15 15 15 15 15 15 15 15
14 14 14 14 15 16 17 18 18 17 16 16 16 16 16 17 17 17 18 18 18 17 17 17 17 17 17 17 16 16 16 16 16 15 15 15 15 15 15 15 14 14 14 14
14 13 13 14 15 15 16 17 18 17 16 16 15 15 15 16 15 15 17 18 17 17 17 17 17 17 17 16 16 16 16 15 15 15 15 15 15 15 15 14 14 14 14 14
14 13 13 14 14 15 15 17 17 16 15 15 15 15 15 14 15 16 16 17 17 17 17 17 17 16 16 16 16 16 15 15 15 15 15 15 15 14 14 14 14 14 14 14
13 13 13 13 13 14 15 15 14 14 15 15 15 15 15 15 15 15 16 16 16 16 16 16 16 16 16 15 15 15 15 15 15 15 15 14 14 14 14 14 14 14 14 14
12 12 12 12 13 13 14 14 15 15 14 15 15 15 15 15 15 15 15 15 16 16 16 16 16 15 15 15 15 15 15 15 14 14 14 14 14 14 14 14 14 14 14 14
12 12 12 12 12 13 14 14 15 15 15 15 15 15 15 15 15 14 14 15 15 15 15 15 15 15 15 15 15 15 15 14 14 14 14 14 14 14 14 14 14 14 14 14
12 11 11 12 12 13 14 14 14 14 14 14 15 15 14 14 14 14 15 15 15 15 15 15 15 15 15 14 14 14 14 14 14 14 14 14 14 14 14 14 14 14 14 14
11 11 11 11 12 12 13 13 14 14 14 14 14 14 14 14 15 14 14 15 15 15 15 14 14 14 14 14 14 14 14 14 14 14 13 13 13 13 13 13 13 13 13 13

GEFSCGP_850_meantemp_354.txt.gz
Temperature
20 17 18 18 19 20 21 21 21 21 22 22 21 21 21 21 21 21 21 21 21 22 22 22 22 22 22 21 21 21 20 20 19 19 19 19 18 18 18 18 17 17 17 17
18 18 19 19 19 20 20 20 20 21 22 22 21 21 20 20 20 21 20 20 21 22 22 22 22 22 21 21 21 21 20 20 20 19 19 19 18 18 18 18 17 17 17 17
19 19 20 20 20 20 20 20 20 21 21 21 21 20 21 20 20 21 21 21 21 22 22 22 22 22 22 21 21 21 20 20 20 19 19 18 18 18 18 17 17 17 17 17
19 19 20 20 20 20 19 20 20 21 20 19 21 19 20 19 19 19 20 20 20 21 22 22 22 22 22 22 21 20 20 20 20 19 19 18 18 18 18 18 17 17 17 17
19 19 20 20 20 20 20 21 20 20 20 19 19 19 18 19 20 19 19 20 20 21 22 22 22 22 22 22 21 20 20 20 19 19 19 18 18 18 17 17 17 17 17 17
19 20 20 20 21 21 21 20 18 16 16 18 19 18 18 18 19 20 19 20 20 21 21 22 22 21 21 21 21 20 20 19 19 19 18 18 18 18 17 17 17 17 17 16
19 20 20 21 21 20 20 18 17 18 16 17 18 18 18 19 18 19 19 19 20 20 21 21 21 21 21 21 20 20 20 19 19 19 18 18 18 18 17 17 17 17 17 16
18 18 20 20 20 19 19 18 17 18 17 17 18 18 18 19 19 19 19 19 20 20 20 20 21 21 21 20 20 20 20 19 19 18 18 18 18 18 17 17 17 17 17 16
17 18 19 20 20 19 18 17 17 16 17 17 17 17 18 19 18 18 18 18 19 19 19 19 20 20 20 20 20 19 19 19 19 18 18 18 18 17 17 17 17 17 16 16
17 18 19 20 20 19 18 16 15 15 16 17 18 18 18 19 18 18 17 17 18 19 19 19 19 19 20 20 19 19 19 18 18 18 18 17 17 17 17 17 17 17 16 16
17 17 19 19 19 19 17 17 15 14 15 16 17 17 18 17 17 17 17 18 18 18 18 19 19 19 19 19 19 19 18 18 18 18 17 17 17 17 17 16 16 16 16 16
16 15 16 17 18 18 18 17 15 16 16 14 15 16 18 17 17 17 17 18 18 18 18 18 18 19 19 19 19 18 18 18 18 17 17 17 17 16 16 16 16 16 16 16
16 15 16 17 17 18 18 16 15 14 13 13 15 17 17 16 16 17 17 17 17 17 17 17 18 18 18 18 18 18 17 17 17 17 17 17 16 16 16 16 16 16 16 15
15 14 15 16 16 17 17 17 15 14 14 14 15 17 17 16 16 16 17 17 17 17 17 17 17 17 18 17 17 17 17 17 17 17 16 16 16 16 16 16 16 16 15 15
15 14 15 15 17 17 17 17 16 16 15 15 16 16 16 16 16 16 16 17 17 16 17 17 17 17 17 17 17 17 17 17 16 16 16 16 16 16 16 16 15 15 15 15
13 14 15 16 16 17 17 17 16 16 16 16 16 16 15 16 16 16 16 16 16 16 16 17 17 17 17 17 17 16 16 16 16 16 16 16 16 16 15 15 15 15 15 15
12 13 14 14 15 17 16 16 16 16 16 16 16 16 15 15 15 15 16 16 16 16 16 16 17 17 17 17 17 16 16 16 16 16 16 16 15 15 15 15 15 14 14 14
12 12 11 12 15 15 15 16 16 16 15 15 15 15 14 14 15 16 16 16 16 16 17 17 17 17 17 17 16 16 16 16 16 16 15 15 15 15 15 14 14 14 14 14
11 11 11 12 13 14 15 15 15 15 15 14 14 14 14 14 15 15 16 16 16 17 17 17 17 17 17 17 16 16 16 15 15 15 15 15 15 14 14 14 14 14 14 14
10 11 11 11 13 14 14 15 15 15 14 14 13 13 13 14 14 14 16 16 16 16 16 17 16 16 16 16 16 16 16 15 15 15 15 15 15 14 14 14 14 14 13 13
11 11 11 11 12 13 13 14 15 15 14 14 14 13 13 13 14 15 16 16 16 16 16 16 16 16 16 16 16 16 16 15 15 15 15 14 14 14 14 14 14 13 13 13
11 11 11 11 12 13 13 13 13 13 14 14 14 14 13 14 14 15 15 15 15 15 15 16 16 16 16 16 15 15 15 15 15 14 14 14 14 14 14 14 13 13 13 13
10 10 10 10 11 12 12 13 13 14 13 14 14 14 14 13 14 14 14 15 15 15 15 15 15 15 15 15 15 15 15 15 14 14 14 14 14 14 14 13 13 13 13 13
10 9 9 10 10 11 12 13 13 13 13 13 13 13 14 13 13 14 14 14 14 14 14 15 15 15 15 15 15 15 14 14 14 14 14 14 14 14 14 13 13 13 13 13
9 9 9 10 10 11 12 13 13 13 13 13 13 13 13 13 13 13 13 14 14 14 14 14 14 14 14 14 14 14 14 14 14 14 14 13 13 13 13 13 13 13 13 13
8 9 9 10 11 10 12 13 13 13 13 13 13 13 13 13 13 13 13 13 13 13 13 14 14 14 14 14 14 14 14 14 13 13 13 13 13 13 13 13 13 13 12 12